Tiempo cada hora 1-e Maya

Hoy, 22 Octubre, Jueves

Tiempo Temperatura Precipitaciones Viento Presión Humedad
00:00 +2°C° 0.1 mm 2 mps 754 mmHg 94%
01:00 +2°C° 0.1 mm 2 mps 754 mmHg 94%
02:00 +2°C° 0.1 mm 2 mps 754 mmHg 94%
03:00 +2°C° 0 mm 2 mps 754 mmHg 95%
04:00 +2°C° 0 mm 2 mps 754 mmHg 95%
05:00 +3°C° 0 mm 2 mps 754 mmHg 95%
06:00 +3°C° 0 mm 2 mps 753 mmHg 94%
07:00 +3°C° 0.1 mm 2 mps 753 mmHg 94%
08:00 +3°C° 0.1 mm 2 mps 753 mmHg 94%
09:00 +4°C° 0.1 mm 2 mps 753 mmHg 93%
10:00 +4°C° 0.1 mm 2 mps 753 mmHg 93%
11:00 +4°C° 0.1 mm 2 mps 753 mmHg 92%
12:00 +4°C° 0.1 mm 3 mps 753 mmHg 91%
13:00 +4°C° 0.1 mm 3 mps 753 mmHg 89%
14:00 +5°C° 0.1 mm 3 mps 753 mmHg 87%
15:00 +5°C° 0.1 mm 3 mps 752 mmHg 86%
16:00 +5°C° 0 mm 3 mps 752 mmHg 86%
17:00 +5°C° 0 mm 3 mps 751 mmHg 87%
18:00 +5°C° 0 mm 3 mps 750 mmHg 87%
19:00 +5°C° 0.3 mm 3 mps 750 mmHg 88%
20:00 +5°C° 0.3 mm 4 mps 750 mmHg 89%
21:00 +5°C° 0.3 mm 4 mps 749 mmHg 90%
22:00 +5°C° 0.5 mm 4 mps 748 mmHg 91%
23:00 +5°C° 0.5 mm 4 mps 747 mmHg 91%

Mañana, 23 Octubre, Viernes

Tiempo Temperatura Precipitaciones Viento Presión Humedad
00:00 +5°C° 0.5 mm 5 mps 746 mmHg 92%
01:00 +6°C° 0.1 mm 5 mps 746 mmHg 91%
02:00 +6°C° 0.1 mm 5 mps 745 mmHg 91%
03:00 +6°C° 0.1 mm 4 mps 745 mmHg 90%
04:00 +6°C° 0.6 mm 4 mps 744 mmHg 91%
05:00 +7°C° 0.6 mm 4 mps 744 mmHg 92%
06:00 +7°C° 0.6 mm 4 mps 743 mmHg 93%
07:00 +8°C° 0.2 mm 4 mps 743 mmHg 91%
08:00 +9°C° 0.2 mm 5 mps 743 mmHg 89%
09:00 +10°C° 0.2 mm 5 mps 743 mmHg 87%
10:00 +10°C° 0 mm 5 mps 743 mmHg 84%
11:00 +12°C° 0 mm 5 mps 744 mmHg 80%
12:00 +12°C° 0 mm 5 mps 744 mmHg 77%
13:00 +12°C° 0 mm 5 mps 744 mmHg 77%
14:00 +12°C° 0 mm 5 mps 744 mmHg 77%
15:00 +12°C° 0 mm 5 mps 745 mmHg 78%
16:00 +12°C° 0 mm 5 mps 745 mmHg 80%
17:00 +11°C° 0 mm 4 mps 744 mmHg 82%
18:00 +10°C° 0 mm 3 mps 744 mmHg 84%
19:00 +10°C° 0.5 mm 3 mps 744 mmHg 87%
20:00 +10°C° 0.5 mm 3 mps 743 mmHg 91%
21:00 +10°C° 0.5 mm 3 mps 743 mmHg 94%
22:00 +10°C° 0.9 mm 4 mps 743 mmHg 93%
23:00 +11°C° 0.9 mm 4 mps 742 mmHg 92%

Pasado mañana, 24 Octubre, Sábado

Tiempo Temperatura Precipitaciones Viento Presión Humedad
00:00 +12°C° 0.9 mm 5 mps 742 mmHg 91%
01:00 +10°C° 0.2 mm 5 mps 742 mmHg 91%
02:00 +10°C° 0.2 mm 5 mps 742 mmHg 90%
03:00 +11°C° 0.2 mm 4 mps 742 mmHg 90%
04:00 +10°C° 0 mm 4 mps 742 mmHg 90%
05:00 +10°C° 0 mm 4 mps 743 mmHg 91%
06:00 +8°C° 0 mm 4 mps 743 mmHg 91%
07:00 +8°C° 0 mm 4 mps 743 mmHg 89%
08:00 +8°C° 0 mm 4 mps 744 mmHg 86%
09:00 +8°C° 0 mm 4 mps 745 mmHg 84%
10:00 +10°C° 0 mm 4 mps 745 mmHg 79%
11:00 +11°C° 0 mm 4 mps 745 mmHg 73%
12:00 +11°C° 0 mm 4 mps 746 mmHg 68%
13:00 +11°C° 0 mm 4 mps 746 mmHg 69%
14:00 +11°C° 0 mm 3 mps 746 mmHg 69%
15:00 +11°C° 0 mm 3 mps 746 mmHg 70%
16:00 +10°C° 0 mm 3 mps 746 mmHg 74%
17:00 +10°C° 0 mm 2 mps 747 mmHg 77%
18:00 +9°C° 0 mm 2 mps 747 mmHg 81%
19:00 +9°C° 0 mm 2 mps 747 mmHg 82%
20:00 +9°C° 0 mm 2 mps 747 mmHg 83%
21:00 +8°C° 0 mm 2 mps 747 mmHg 84%
22:00 +8°C° 0 mm 2 mps 747 mmHg 86%
23:00 +8°C° 0 mm 2 mps 747 mmHg 87%

, 25 Octubre, Domingo

Tiempo Temperatura Precipitaciones Viento Presión Humedad
00:00 +9°C° 0 mm 1 mps 747 mmHg 89%
01:00 +8°C° 0 mm 1 mps 747 mmHg 89%
02:00 +8°C° 0 mm 1 mps 746 mmHg 90%
03:00 +8°C° 0 mm 1 mps 746 mmHg 90%
04:00 +8°C° 0.5 mm 1 mps 746 mmHg 91%
05:00 +8°C° 0.5 mm 1 mps 746 mmHg 93%
06:00 +8°C° 0.5 mm 1 mps 746 mmHg 94%
07:00 +8°C° 0.4 mm 1 mps 746 mmHg 94%
08:00 +8°C° 0.4 mm 1 mps 746 mmHg 95%
09:00 +8°C° 0.4 mm 1 mps 746 mmHg 95%
10:00 +8°C° 0.2 mm 1 mps 746 mmHg 92%
11:00 +8°C° 0.2 mm 2 mps 746 mmHg 90%
12:00 +8°C° 0.2 mm 2 mps 747 mmHg 88%
13:00 +8°C° 0 mm 2 mps 747 mmHg 86%
14:00 +8°C° 0 mm 2 mps 747 mmHg 85%
15:00 +9°C° 0 mm 2 mps 747 mmHg 83%
16:00 +8°C° 0 mm 2 mps 748 mmHg 86%
17:00 +7°C° 0 mm 2 mps 748 mmHg 88%
18:00 +7°C° 0 mm 2 mps 748 mmHg 91%
19:00 +7°C° 0 mm 2 mps 749 mmHg 91%
20:00 +7°C° 0 mm 2 mps 749 mmHg 92%
21:00 +7°C° 0 mm 2 mps 750 mmHg 93%
22:00 +7°C° 0 mm 2 mps 750 mmHg 93%
23:00 +7°C° 0 mm 3 mps 751 mmHg 93%

25 Octubre, Domingo

Tiempo Temperatura Precipitaciones Viento Presión Humedad
00:00 +9°C° 0 mm 1 mps 747 mmHg 89%
01:00 +8°C° 0 mm 1 mps 747 mmHg 89%
02:00 +8°C° 0 mm 1 mps 746 mmHg 90%
03:00 +8°C° 0 mm 1 mps 746 mmHg 90%
04:00 +8°C° 0.5 mm 1 mps 746 mmHg 91%
05:00 +8°C° 0.5 mm 1 mps 746 mmHg 93%
06:00 +8°C° 0.5 mm 1 mps 746 mmHg 94%
07:00 +8°C° 0.4 mm 1 mps 746 mmHg 94%
08:00 +8°C° 0.4 mm 1 mps 746 mmHg 95%
09:00 +8°C° 0.4 mm 1 mps 746 mmHg 95%
10:00 +8°C° 0.2 mm 1 mps 746 mmHg 92%
11:00 +8°C° 0.2 mm 2 mps 746 mmHg 90%
12:00 +8°C° 0.2 mm 2 mps 747 mmHg 88%
13:00 +8°C° 0 mm 2 mps 747 mmHg 86%
14:00 +8°C° 0 mm 2 mps 747 mmHg 85%
15:00 +9°C° 0 mm 2 mps 747 mmHg 83%
16:00 +8°C° 0 mm 2 mps 748 mmHg 86%
17:00 +7°C° 0 mm 2 mps 748 mmHg 88%
18:00 +7°C° 0 mm 2 mps 748 mmHg 91%
19:00 +7°C° 0 mm 2 mps 749 mmHg 91%
20:00 +7°C° 0 mm 2 mps 749 mmHg 92%
21:00 +7°C° 0 mm 2 mps 750 mmHg 93%
22:00 +7°C° 0 mm 2 mps 750 mmHg 93%
23:00 +7°C° 0 mm 3 mps 751 mmHg 93%

26 Octubre, Lunes

Tiempo Temperatura Precipitaciones Viento Presión Humedad
00:00 +7°C° 0 mm 3 mps 751 mmHg 93%
01:00 +7°C° 0 mm 3 mps 752 mmHg 90%
02:00 +7°C° 0 mm 3 mps 752 mmHg 88%
03:00 +7°C° 0 mm 3 mps 753 mmHg 86%
04:00 +5°C° 0 mm 3 mps 753 mmHg 88%
05:00 +5°C° 0 mm 2 mps 754 mmHg 90%
06:00 +4°C° 0 mm 2 mps 754 mmHg 93%
07:00 +4°C° 0 mm 2 mps 755 mmHg 91%
08:00 +4°C° 0 mm 2 mps 756 mmHg 89%
09:00 +5°C° 0 mm 2 mps 756 mmHg 87%
10:00 +5°C° 0 mm 2 mps 756 mmHg 80%
11:00 +6°C° 0 mm 2 mps 757 mmHg 73%
12:00 +7°C° 0 mm 2 mps 757 mmHg 66%
13:00 +7°C° 0 mm 2 mps 757 mmHg 65%
14:00 +7°C° 0 mm 2 mps 758 mmHg 64%
15:00 +7°C° 0 mm 2 mps 758 mmHg 62%
16:00 +6°C° 0 mm 2 mps 758 mmHg 68%
17:00 +6°C° 0 mm 1 mps 758 mmHg 73%
18:00 +5°C° 0 mm 1 mps 759 mmHg 79%
19:00 +5°C° 0 mm 1 mps 759 mmHg 80%
20:00 +4°C° 0 mm 1 mps 759 mmHg 82%
21:00 +4°C° 0 mm 1 mps 760 mmHg 84%
22:00 +4°C° 0 mm 1 mps 760 mmHg 85%
23:00 +3°C° 0 mm 1 mps 760 mmHg 86%

27 Octubre, Martes

Tiempo Temperatura Precipitaciones Viento Presión Humedad
00:00 +3°C° 0 mm 1 mps 760 mmHg 87%
01:00 +3°C° 0 mm 1 mps 760 mmHg 88%
02:00 +2°C° 0 mm 1 mps 760 mmHg 89%
03:00 +2°C° 0 mm 1 mps 761 mmHg 89%
04:00 +2°C° 0 mm 1 mps 761 mmHg 90%
05:00 +2°C° 0 mm 1 mps 761 mmHg 90%
06:00 +2°C° 0 mm 1 mps 761 mmHg 90%
07:00 +2°C° 0 mm 1 mps 761 mmHg 87%
08:00 +2°C° 0 mm 2 mps 762 mmHg 84%
09:00 +2°C° 0 mm 2 mps 762 mmHg 81%
10:00 +4°C° 0 mm 2 mps 762 mmHg 76%
11:00 +5°C° 0 mm 2 mps 762 mmHg 70%
12:00 +6°C° 0 mm 2 mps 762 mmHg 65%
13:00 +6°C° 0 mm 2 mps 761 mmHg 64%
14:00 +7°C° 0 mm 2 mps 761 mmHg 64%
15:00 +7°C° 0 mm 2 mps 761 mmHg 63%
16:00 +6°C° 0 mm 2 mps 761 mmHg 68%
17:00 +5°C° 0 mm 2 mps 761 mmHg 74%
18:00 +3°C° 0 mm 2 mps 761 mmHg 79%
19:00 +3°C° 0 mm 2 mps 761 mmHg 80%
20:00 +3°C° 0 mm 2 mps 760 mmHg 80%
21:00 +3°C° 0 mm 2 mps 760 mmHg 81%
22:00 +3°C° 0 mm 2 mps 760 mmHg 81%
23:00 +3°C° 0 mm 2 mps 760 mmHg 81%
Mostrar más

Necesitamos Su Consentimiento

Meteoprog y nuestros Proveedores de Servicios pueden almacenar y acceder a sus datos personales como cookies, identificadores de dispositivo u otras tecnologías similares de su dispositivo y procesar dichos datos para personalizar contenido y anuncios, además de ofrecer funciones de redes sociales y analizar el tráfico.

  • Almacenar y/o acceder a información en su dispositivo

    Se puede almacenar o acceder a cookies, identificadores de dispositivo u otra información de su dispositivo para los fines anteriormente indicados.

  • Anuncios y contenido personalizados, medición de anuncios y contenido, percepciones del público, y desarrollo de productos

    Los anuncios y el contenido pueden personalizarse en base a su perfil. Se pueden añadir más datos para personalizar mejor los anuncios y contenidos. Se puede medir el rendimiento de los anuncios y contenidos. Se puede obtener la percepción sobre el público que ha visto los anuncios y contenidos. Dichos datos pueden usarse para desarrollar o mejorar la experiencia del usuario, sistemas y software.

Al hacer clic en ‘Estoy De Acuerdo’ usted permitirá el uso de las cookies, identificadores de dispositivo, balizas web u otras tecnologías similares indicadas. Su configuración puede cambiarse desde el navegador de su dispositivo.

Para ciertos fines, los intereses legítimos pueden ser considerados por encima del consentimiento. Puede leer más sobre ello en nuestra Política de Privacidad y Cookies.